Weather History for KARR - July, 2013

Change the Weather History Date:

Sunday, July 14, 2013

  Actual Average Record
Temperature  
Mean Temperature 77 °F 72 °F  
Max Temperature 90 °F 84 °F 93 °F (2005)
Min Temperature 64 °F 60 °F 50 °F (2002)
Degree Days  
Heating Degree Days 0 0  
Month to date heating degree days 0 0  
Since 1 June heating degree days 44 41  
Since 1 July heating degree days 0 0  
Cooling Degree Days 12 7  
Month to date cooling degree days 97 98  
Year to date cooling degree days 322 294  
Since 1 June cooling degree days 242 253  
Growing Degree Days 28 (Base 50)    
Moisture  
Dew Point 66 °F    
Average Humidity 70    
Maximum Humidity 93    
Minimum Humidity 47    
Precipitation  
Precipitation 0.00 in 0.14 in 0.01 in (2006)
Month to date precipitation 0.77 1.63  
Year to date precipitation 21.23 18.52  
Sea Level Pressure  
Sea Level Pressure 30.18 in    
Wind  
Wind Speed 6 mph (East)    
Max Wind Speed 13 mph    
Max Gust Speed 16 mph    
Visibility 10 miles    
Events      
T = Trace of Precipitation, MM = Missing Value Source: NWS Daily Summary

Daily Weather History Graph

Daily Weather History Graph

Search for Another Location

Airport or City:

Trip Planner

Search our weather history database for the weather conditions in past years. The results will help you decide how hot, cold, wet, or windy it might be!

Date:

Astronomy

Jul. 14, 2013 Rise Set
Actual Time 5:31 AM CDT 8:27 PM CDT
Civil Twilight 4:58 AM CDT 9:00 PM CDT
Nautical Twilight 4:16 AM CDT 9:42 PM CDT
Astronomical Twilight 3:27 AM CDT 10:31 PM CDT
Moon 11:54 AM CDT (7/14) 11:32 PM CDT (7/14)
Length of Visible Light 16h 02m
Length of Day
14h 55m
Waxing Crescent, 35% of the Moon is Illuminated
Jul 14
Waxing Crescent
Jul 15
First Quarter
Jul 22
Full
Jul 29
Last Quarter
Aug 6
New

Hourly Weather History & Observations

Time (CDT) Temp. Heat Index Dew Point Humidity Pressure Visibility Wind Dir Wind Speed Gust Speed Precip Events Conditions
12:52 AM 68.0 °F - 61.0 °F 78% 30.14 in 10.0 mi Calm Calm - N/A   Clear
1:52 AM 66.0 °F - 61.0 °F 84% 30.14 in 10.0 mi Calm Calm - N/A   Partly Cloudy
2:52 AM 66.0 °F - 61.0 °F 84% 30.16 in 10.0 mi NE 4.6 mph - N/A   Clear
3:52 AM 66.9 °F - 62.1 °F 84% 30.16 in 9.0 mi Calm Calm - N/A   Clear
4:52 AM 66.0 °F - 62.1 °F 87% 30.17 in 8.0 mi Calm Calm - N/A   Clear
5:52 AM 66.9 °F - 64.0 °F 90% 30.17 in 6.0 mi East 5.8 mph - N/A   Clear
6:52 AM 72.0 °F - 66.9 °F 84% 30.17 in 8.0 mi East 6.9 mph - N/A   Clear
7:52 AM 75.9 °F - 66.9 °F 74% 30.17 in 10.0 mi ESE 10.4 mph - N/A   Clear
8:52 AM 78.1 °F - 66.9 °F 68% 30.18 in 10.0 mi ESE 9.2 mph - N/A   Clear
9:52 AM 81.0 °F 83.3 °F 66.9 °F 62% 30.19 in 10.0 mi Variable 5.8 mph - N/A   Clear
10:52 AM 82.0 °F 84.5 °F 66.9 °F 60% 30.20 in 10.0 mi East 3.5 mph - N/A   Mostly Cloudy
11:52 AM 84.9 °F 88.2 °F 68.0 °F 57% 30.21 in 10.0 mi ENE 5.8 mph - N/A   Scattered Clouds
12:52 PM 87.1 °F 91.3 °F 69.1 °F 55% 30.20 in 10.0 mi East 8.1 mph - N/A   Partly Cloudy
1:52 PM 87.1 °F 89.9 °F 66.9 °F 51% 30.19 in 10.0 mi ENE 5.8 mph - N/A   Mostly Cloudy
2:52 PM 87.1 °F 89.2 °F 66.0 °F 49% 30.19 in 10.0 mi ENE 4.6 mph - N/A   Mostly Cloudy
3:52 PM 88.0 °F 91.4 °F 68.0 °F 51% 30.18 in 10.0 mi NNE 5.8 mph - N/A   Scattered Clouds
4:52 PM 89.1 °F 91.3 °F 66.0 °F 46% 30.17 in 10.0 mi East 8.1 mph - N/A   Partly Cloudy
5:52 PM 88.0 °F 91.4 °F 68.0 °F 51% 30.16 in 10.0 mi ENE 9.2 mph - N/A   Partly Cloudy
6:52 PM 86.0 °F 88.8 °F 66.9 °F 53% 30.16 in 10.0 mi ESE 10.4 mph - N/A   Clear
7:52 PM 84.0 °F 86.5 °F 66.9 °F 56% 30.17 in 10.0 mi East 5.8 mph - N/A   Clear
8:52 PM 79.0 °F - 68.0 °F 69% 30.18 in 10.0 mi East 6.9 mph - N/A   Clear
9:52 PM 75.9 °F - 68.0 °F 76% 30.20 in 10.0 mi East 5.8 mph - N/A   Clear
10:52 PM 73.9 °F - 68.0 °F 82% 30.21 in 10.0 mi NNE 3.5 mph - N/A   Clear
11:52 PM 73.0 °F - 66.9 °F 81% 30.21 in 10.0 mi NNE 4.6 mph - N/A   Clear